Home   Weather   Samsun   Past weeks

Flag for Turkey Past Weather in Samsun, Turkey — Yesterday and Last 2 Weeks

Now
48 °F

Passing clouds.


Feels Like: 48 °F
Forecast: 53 / 69 °F
Wind: No wind

Location: Samsun / Carsamba

Current Time: Sep 27, 2016 at 6:46:14 AM

Latest Report: Sep 27, 2016 at 5:50 AM


Visibility: N/A

Pressure: 30.09 "Hg

Humidity: 94%

Dew Point: 46 °F

Location of SamsunLocation

Past Weather in Samsun — Graph

°F

Samsun Temperature Yesterday

Maximum temperature yesterday: 70 °F (at 11:50 AM)
Minimum temperature yesterday: 45 °F (at 6:50 AM)
Average temperature yesterday: 58 °F

High & Low Weather Summary for the Past Weeks

 TemperatureHumidityPressure
High91 °F (Sep 19, 12:50 PM)94% (Sep 12, 4:50 AM)30.21 "Hg (Sep 12, 4:50 AM)
Low45 °F (Sep 26, 6:50 AM)21% (Sep 19, 1:50 PM)29.62 "Hg (Sep 20, 2:50 AM)
Average66 °F74%29.96 "Hg
* Reported Sep 12 4:50 AM — Sep 27 4:50 AM, Samsun, Weather by CustomWeather, © 2016

Note: Actual official high and low records may vary slightly from our data, if they occured in-between our weather recording intervals... More about our weather records

Advertising

Samsun Weather History for the Previous 24 Hours

Scroll right to see more
 ConditionsComfort  
Time TempWeatherWind HumidityBarometerVisibility
4:50 AM
Tue, Sep 27
48 °FPassing clouds.5 mph94%30.09 "HgN/A
3:50 AM48 °FPassing clouds.No wind94%30.09 "HgN/A
2:50 AM50 °FPassing clouds.No wind94%30.09 "HgN/A
1:50 AM50 °FPassing clouds.2 mph94%30.12 "HgN/A
12:50 AM50 °FPassing clouds.1 mph94%30.09 "HgN/A
11:50 PM
Mon, Sep 26
50 °FPassing clouds.2 mph94%30.12 "HgN/A
10:50 PM54 °FPassing clouds.No wind88%30.12 "HgN/A
9:50 PM54 °FPassing clouds.No wind94%30.12 "HgN/A
8:50 PM55 °FPassing clouds.No wind88%30.09 "HgN/A
7:50 PM55 °FPassing clouds.No wind88%30.09 "HgN/A
6:50 PM61 °FPassing clouds.No wind72%30.07 "HgN/A
5:50 PM66 °FScattered clouds.5 mph60%30.07 "HgN/A
4:50 PM68 °FScattered clouds.5 mph56%30.04 "HgN/A
3:50 PM70 °FScattered clouds.5 mph53%30.04 "HgN/A
2:50 PM70 °FScattered clouds.5 mph53%30.04 "HgN/A
1:50 PM70 °FScattered clouds.7 mph50%30.04 "HgN/A
12:50 PM68 °FScattered clouds.6 mph56%30.04 "HgN/A
11:50 AM70 °FScattered clouds.1 mph50%30.04 "HgN/A
10:50 AM68 °FPassing clouds.2 mph49%30.04 "HgN/A
9:50 AM66 °FPassing clouds.1 mph56%30.04 "HgN/A
8:50 AM61 °FScattered clouds.No wind72%30.04 "HgN/A
7:50 AM52 °FPassing clouds.1 mph94%30.04 "HgN/A
6:50 AM45 °FPassing clouds.2 mph93%30.01 "HgN/A
Weather by CustomWeather, © 2016

See weather overviewHow to use our weather pages